EW5860 Weather Reports


time (UTC)temp
F
wind
direction
speed
knots
gust
knots
rain 1hr
in
rain 24hr
in
rain mn
in
humidity
%
barometer
mb
20260901174533 86 210 2.6 6.1 0.00 0.05 0.02 74 1014.0
20260901173031 85 204 2.6 5.2 0.00 0.05 0.02 74 1013.9
20260901171526 85 235 2.6 10.4 0.00 0.05 0.02 77 1014.1
20260901170023 83 264 0.9 3.5 0.00 0.05 0.02 82 1014.4
20260901164520 81 252 0.0 3.5 0.00 0.05 0.02 84 1014.6
20260901163018 81 189 0.0 1.7 0.00 0.05 0.02 85 1014.8
20260901161513 80 161 0.0 0.0 0.00 0.05 0.02 88 1015.0
20260901160014 79 191 0.0 1.7 0.00 0.05 0.02 92 1015.3
20260901154511 78 219 0.0 1.7 0.00 0.05 0.02 91 1015.4
20260901153010 78 238 0.0 0.9 0.00 0.05 0.02 92 1015.5
20260901151510 78 345 0.0 2.6 0.00 0.05 0.02 91 1015.5
20260901150012 79 211 0.0 0.0 0.00 0.05 0.02 89 1015.5
20260901144508 79 211 0.0 0.0 0.00 0.05 0.02 87 1015.2
20260901143007 79 211 0.0 1.7 0.01 0.05 0.02 86 1015.2
20260901141504 78 175 0.0 0.0 0.01 0.05 0.02 90 1015.3
20260901134619 75 220 0.0 1.7 0.01 0.05 0.02 95 1015.4
20260901133059 73 241 0.0 0.0 0.00 0.04 0.01 96 1015.6
20260901131557 73 263 0.0 1.7 0.00 0.04 0.01 96 1015.6
20260901130051 73 256 0.0 0.9 0.00 0.04 0.01 97 1015.7
20260901124555 73 242 0.0 0.9 0.00 0.04 0.01 97 1015.8
20260901123050 73 17 0.0 1.7 0.00 0.04 0.01 98 1015.6
20260901121548 73 236 0.0 2.6 0.00 0.04 0.01 98 1015.5
20260901120044 71 218 0.0 1.7 0.00 0.04 0.01 99 1015.4
20260901114556 70 279 0.0 0.0 0.00 0.04 0.01 98 1015.5
20260901113041 69 279 0.0 0.0 0.00 0.04 0.01 98 1015.8
20260901111541 69 279 0.0 0.0 0.00 0.04 0.01 98 1015.9
20260901110041 68 279 0.0 0.0 0.00 0.04 0.01 98 1015.7
20260901104539 69 279 0.0 0.0 0.00 0.04 0.01 98 1015.8
20260901103038 69 279 0.0 0.0 0.00 0.04 0.01 98 1015.6
20260901101538 68 279 0.0 0.0 0.00 0.04 0.01 98 1015.7
20260901100042 68 279 0.0 0.0 0.00 0.04 0.01 98 1015.8
20260901094536 69 290 0.0 0.0 0.00 0.04 0.01 98 1015.7
20260901093036 69 290 0.0 0.0 0.00 0.04 0.01 98 1015.7
20260901091539 69 290 0.0 0.0 0.00 0.04 0.01 97 1015.8
20260901090033 69 290 0.0 0.0 0.00 0.04 0.01 98 1015.7
20260901084532 69 290 0.0 0.0 0.00 0.04 0.01 97 1015.9
20260901083032 69 290 0.0 0.0 0.00 0.04 0.01 97 1016.1
20260901081537 69 290 0.0 0.0 0.00 0.04 0.01 97 1016.3
20260901080031 69 290 0.0 0.0 0.00 0.04 0.01 97 1016.2
20260901074532 69 290 0.0 0.0 0.00 0.04 0.01 97 1016.0
20260901073030 69 290 0.0 0.0 0.00 0.04 0.01 97 1016.0
20260901071529 69 290 0.0 0.0 0.00 0.04 0.01 97 1016.0
20260901070034 69 290 0.0 0.0 0.00 0.04 0.01 97 1016.0
20260901064530 69 290 0.0 0.9 0.00 0.04 0.01 96 1016.2
20260901063031 70 294 0.0 0.9 0.00 0.04 0.01 96 1016.5
20260901061524 70 315 0.0 0.0 0.00 0.04 0.01 96 1016.4
20260901060022 70 315 0.0 0.0 0.00 0.04 0.01 96 1016.6
20260901054531 71 315 0.0 0.0 0.00 0.04 0.01 96 1016.8
20260901053020 71 238 0.0 1.7 0.00 0.04 0.01 96 1016.8
20260901051519 70 178 0.0 3.5 0.00 0.04 0.01 96 1016.8
20260901050018 70 219 0.0 3.5 0.01 0.04 0.01 97 1016.9
20260901044516 70 228 0.9 6.1 0.01 0.04 0.01 97 1016.9
20260901043014 69 219 0.0 3.5 0.02 0.04 0.01 98 1017.1
20260901041511 69 192 0.0 2.6 0.02 0.04 0.01 97 1017.2
20260901040009 69 215 0.0 0.0 0.01 0.03 0.00 97 1017.4
20260901034518 69 215 0.0 0.0 0.01 0.03 0.03 97 1017.8
20260901033012 68 215 0.0 0.0 0.00 0.02 0.02 97 1017.9
20260901031517 68 215 0.0 0.0 0.00 0.02 0.02 97 1017.7
20260901030007 68 215 0.0 0.0 0.00 0.02 0.02 97 1017.8
20260901024506 68 215 0.0 0.0 0.00 0.02 0.02 97 1017.8
20260901023007 68 215 0.0 0.0 0.00 0.02 0.02 97 1017.8
20260901021505 68 215 0.0 0.0 0.00 0.02 0.02 97 1017.8
20260901020004 67 215 0.0 0.0 0.00 0.02 0.02 97 1017.7
20260901014504 67 215 0.0 0.0 0.00 0.09 0.02 97 1017.7
20260901013009 67 215 0.0 0.0 0.00 0.09 0.02 96 1017.7
20260901011503 68 215 0.0 0.0 0.00 0.09 0.02 96 1017.7
20260901010003 68 215 0.0 0.0 0.00 0.09 0.02 96 1017.7
20260901004503 68 215 0.0 0.0 0.00 0.11 0.02 95 1017.7
20260901003002 69 215 0.0 0.0 0.00 0.11 0.02 95 1017.6
20260901001502 69 215 0.0 0.0 0.00 0.11 0.02 95 1017.4
20260901000001 70 215 0.0 0.0 0.00 0.11 0.02 94 1017.3
20260831234502 70 215 0.0 0.0 0.00 0.11 0.02 93 1017.2
20260831233102 71 215 0.0 0.0 0.00 0.11 0.02 92 1017.2
20260831231559 73 215 0.0 0.0 0.00 0.11 0.02 91 1017.3
20260831230056 74 215 0.0 0.0 0.00 0.11 0.02 88 1017.5
20260831224554 76 215 0.0 0.0 0.00 0.11 0.02 86 1017.8
20260831223054 77 215 0.0 0.0 0.00 0.11 0.02 83 1017.8
20260831221614 77 215 0.0 0.0 0.00 0.11 0.02 83 1017.8
20260831220052 77 211 0.0 0.0 0.00 0.11 0.02 84 1017.8
20260831214549 76 211 0.0 0.9 0.00 0.11 0.02 81 1018.0
20260831213049 76 249 0.0 0.9 0.00 0.11 0.02 82 1018.1
20260831211547 76 256 0.0 0.0 0.00 0.11 0.02 81 1018.4
20260831210048 75 256 0.0 0.9 0.00 0.11 0.02 83 1018.5
20260831204545 75 219 0.0 0.9 0.00 0.11 0.02 91 1018.4
20260831203103 73 218 0.0 0.0 0.00 0.11 0.02 90 1018.5
20260831201550 74 218 0.0 0.0 0.00 0.11 0.02 92 1018.6
20260831200124 74 218 0.0 0.0 0.02 0.11 0.02 91 1018.8
20260831194542 74 219 0.0 0.0 0.02 0.11 0.02 90 1019.0
20260831193042 74 217 0.0 0.9 0.02 0.11 0.02 89 1019.1
20260831191544 75 138 0.0 0.9 0.02 0.11 0.02 84 1019.0
20260831190042 76 259 0.0 0.0 0.00 0.09 0.00 78 1019.4
20260831184545 76 259 0.0 0.9 0.00 0.09 0.00 76 1019.5
20260831183039 76 256 0.0 0.9 0.00 0.09 0.00 79 1019.4
20260831181548 77 203 0.0 0.0 0.00 0.09 0.00 78 1019.4
20260831180038 77 202 0.0 0.9 0.00 0.09 0.00 75 1019.3